#timestamp,LO_Frequency,Hit,StdDev 
1525035615.6,286047003.2,N
1525035635.4,286047003.7,N
1525035655.2,286047002.1,N
1525035675.1,286047002.0,N
1525035676.0,286047002.0,N
1525035695.8,286047003.0,N
1525035715.7,286047004.2,Y
1525035735.5,286047002.4,P
1525035755.3,286047001.8,P
1525035775.2,286047002.6,P
1525035795.0,286047002.0,Y
1525035795.9,286047002.0,P
1525035815.8,286047001.0,P
1525035835.6,286046998.9,N
1525035855.4,286046998.4,N
1525035875.3,286046999.1,N
1525035895.1,286046998.6,N
1525035915.8,286046998.6,N
1525035935.7,286046999.4,N
1525035955.5,286046998.2,N
1525035975.4,286047000.8,N
1525035995.2,286046999.6,N
1525036015.0,286046999.0,N
1525036015.9,286046999.0,N
1525036035.8,286046999.3,N
1525036055.6,286046998.0,N
1525036075.5,286046997.1,N
1525036095.3,286046997.8,N
1525036115.1,286046994.9,Y
1525036135.9,286046997.6,P
1525036155.7,286046998.0,N
1525036175.6,286046995.6,P
1525036195.4,286046993.3,Y
1525036215.2,286046998.9,P
1525036235.1,286047000.1,N
1525036236.0,286047000.1,N
1525036255.8,286047001.1,N
1525036275.7,286046998.5,N
1525036295.5,286047001.1,N
1525036315.3,286046999.0,N
1525036335.2,286046999.4,N
1525036355.9,286046997.0,N
1525036375.7,286046999.6,N
1525036395.6,286046998.0,N
1525036415.4,286046996.1,Y
1525036435.3,286046999.6,P
1525036455.1,286046999.0,P
1525036456.0,286046999.0,P
1525036475.8,286046999.4,N
1525036495.7,286046998.8,Y
1525036515.5,286047000.8,P
1525036535.4,286046998.2,N
1525036555.2,286046998.3,N
1525036575.0,286046998.3,N
1525036575.9,286046998.3,N
1525036595.8,286046996.8,Y
1525036615.6,286046998.6,P
1525036635.5,286046998.6,P
1525036655.3,286046998.2,P
1525036675.1,286046998.4,Y
1525036695.9,286047000.3,P
1525036715.7,286047000.6,N
1525036735.5,286047001.2,N
1525036755.4,286047000.3,N
1525036775.2,286047000.3,N
1525036795.1,286046998.1,N
1525036796.0,286046998.1,N
1525036815.8,286046998.3,N
1525036835.6,286046998.1,N
1525036855.5,286046998.2,N
1525036875.3,286047000.9,N
1525036895.1,286046998.5,N
1525036915.9,286047000.9,N
1525036935.7,286047001.2,N
1525036955.6,286046999.3,N
1525036975.4,286046999.6,N
1525036995.2,286046999.4,N
1525037015.1,286046999.6,N
1525037016.0,286046999.6,N
1525037035.8,286046996.7,Y
1525037055.7,286046999.6,P
1525037075.5,286046998.4,P
1525037095.3,286046998.9,N
1525037115.2,286047001.0,N
1525037135.9,286046998.2,N
1525037155.7,286046998.5,N
1525037175.6,286047000.6,N
1525037195.4,286047000.0,N
1525037215.3,286046998.2,N
1525037235.1,286047000.1,N
1525037236.0,286047000.1,N
1525037255.8,286047000.0,N
1525037275.7,286047000.4,N
1525037295.5,286047000.4,N
1525037315.3,286047000.7,N
1525037335.2,286047000.9,N
1525037355.0,286046998.3,N
1525037355.9,286046998.3,N
1525037375.8,286046999.4,N
1525037395.6,286046998.3,N
1525037415.4,286046999.2,N
1525037435.3,286046996.8,Y
1525037455.1,286046998.9,P
1525037475.9,286046999.0,P
1525037495.7,286046999.2,P
1525037515.5,286046999.5,N
1525037535.4,286046997.0,Y
1525037555.2,286046996.5,P
1525037575.0,286046996.5,N
1525037575.9,286046996.5,N
1525037595.8,286046997.0,N
1525037615.6,286046999.3,N
1525037635.5,286046999.5,N
1525037655.3,286046999.6,N
1525037675.1,286046999.5,N
1525037695.9,286046997.1,N
1525037715.7,286046999.5,N
1525037735.5,286046996.9,N
1525037755.4,286046999.5,N
1525037775.2,286046999.5,N
1525037795.1,286046996.6,N
1525037796.0,286046996.6,N
1525037815.8,286046997.1,N
1525037835.6,286046996.8,N
1525037855.5,286046997.7,N
1525037875.3,286046998.0,N
1525037895.1,286046999.5,N
1525037915.9,286046999.1,N
1525037935.7,286046999.6,N
1525037955.6,286046999.5,N
1525037975.4,286046997.1,N
1525037995.2,286046995.7,Y
1525038015.1,286046997.6,P
1525038016.0,286046997.6,P
1525038035.8,286046995.4,P
1525038055.6,286046997.9,N
1525038075.5,286046998.0,N
1525038095.3,286046997.5,N
1525038115.2,286046997.8,N
1525038135.0,286046996.9,Y
1525038135.9,286046996.9,P
1525038155.7,286046998.1,P
1525038175.6,286047000.9,N
1525038195.4,286046998.6,N
1525038215.3,286047000.9,N
1525038235.1,286046998.6,N
1525038236.0,286046998.6,N
1525038255.8,286046999.4,N
1525038275.7,286047001.2,N
1525038295.5,286047000.8,N
1525038315.3,286047000.7,N
1525038335.2,286047000.5,N
1525038355.0,286046998.2,N
1525038355.9,286046998.2,N
1525038375.8,286046998.8,N
1525038395.6,286046998.7,N
1525038415.4,286046998.8,N
1525038435.3,286046999.6,N
1525038455.1,286047000.8,N
1525038475.8,286046998.5,N
1525038495.7,286047000.5,N
1525038515.5,286047002.2,N
1525038535.4,286047001.5,N
1525038555.2,286047001.9,N
1525038575.0,286047001.5,N
1525038575.9,286047001.5,N
1525038595.8,286047002.4,N
1525038615.6,286047002.6,N
1525038635.5,286047002.8,N
1525038655.3,286046999.8,N
1525038675.1,286047000.7,N
1525038695.9,286047000.8,N
1525038715.7,286046998.1,N
1525038735.6,286046999.7,N
1525038755.4,286046999.9,N
1525038775.2,286047001.8,N
1525038795.1,286047002.2,N
1525038796.0,286047002.2,N
1525038815.8,286047002.6,N
1525038835.6,286047000.2,N
1525038855.5,286047002.5,N
1525038875.3,286047000.9,N
1525038895.2,286047000.1,N
1525038915.9,286047004.3,N
1525038935.7,286047001.3,N
1525038955.6,286047002.2,N
1525038975.4,286047002.7,N
1525038995.2,286047004.4,Y
1525039015.1,286047000.2,P
1525039016.0,286047000.2,N
1525039035.8,286047000.5,N
1525039055.7,286047001.2,N
1525039075.5,286047001.1,N
1525039095.3,286047001.1,N
1525039115.2,286047002.4,Y
1525039135.0,286047000.3,P
1525039135.9,286047000.3,N
1525039155.8,286047000.3,N
1525039175.6,286047002.7,Y
1525039195.4,286046999.9,P
